This is the latest recevied weather packets stored in our database for station/object VK2OB. If no packets are shown the sender has not sent any weather packets the latest 10 day(s).
| Time | Temp. | Humidity | Pressure | Rain* | Wind** | Luminosity | Snow |
|---|---|---|---|---|---|---|---|
| 1778125630 | 18.33° C | 26% | 1013 hPa | 0 mm | - | - | - |
| 1778125331 | 18.33° C | 27% | 1013.1 hPa | 0 mm | - | - | - |
| 1778125032 | 18.33° C | 33% | 1012.9 hPa | 0 mm | - | - | - |
| 1778124733 | 18.33° C | 42% | 1013 hPa | 0 mm | - | - | - |
| 1778124434 | 18.33° C | 42% | 1013.1 hPa | 0 mm | - | - | - |
| 1778124135 | 18.33° C | 44% | 1013 hPa | 0 mm | - | - | - |
| 1778123836 | 18.33° C | 44% | 1012.9 hPa | 0 mm | - | - | - |
| 1778123537 | 18.89° C | 43% | 1012.9 hPa | 0 mm | - | - | - |
| 1778123238 | 18.89° C | 46% | 1012.9 hPa | 0 mm | - | - | - |
| 1778122939 | 18.33° C | 50% | 1012.9 hPa | 0 mm | - | - | - |
| 1778122640 | 18.89° C | 53% | 1013 hPa | 0 mm | - | - | - |
| 1778122341 | 18.33° C | 52% | 1012.9 hPa | 0 mm | - | - | - |
| 1778122042 | 18.33° C | 52% | 1012.9 hPa | 0 mm | - | - | - |
| 1778121743 | 18.33° C | 52% | 1013 hPa | 0 mm | - | - | - |
| 1778121444 | 18.33° C | 52% | 1013.2 hPa | 0 mm | - | - | - |
| 1778121145 | 18.33° C | 52% | 1013.2 hPa | 0 mm | - | - | - |
| 1778120846 | 18.33° C | 52% | 1013.3 hPa | 0 mm | - | - | - |
| 1778120547 | 18.33° C | 51% | 1013.4 hPa | 0 mm | - | - | - |
| 1778120248 | 19.44° C | 49% | 1013.4 hPa | 0 mm | - | - | - |
| 1778119949 | 19.44° C | 48% | 1013.6 hPa | 0 mm | - | - | - |
| 1778119649 | 20° C | 48% | 1013.8 hPa | 0 mm | - | - | - |
| 1778119351 | 20° C | 48% | 1013.9 hPa | 0 mm | - | - | - |
| 1778119052 | 19.44° C | 50% | 1014 hPa | 0 mm | - | - | - |
| 1778118753 | 19.44° C | 49% | 1014.1 hPa | 0 mm | - | - | - |
| 1778118454 | 20° C | 48% | 1014.1 hPa | 0 mm | - | - | - |
* Rain latest hour (hover to see other rain measurements)
** Current wind speed in m/s (hover to see current wind gust speed)